Time,TemperatureF,DewpointF,PressureIn,WindDirection,WindDirectionDegrees,WindSpeedMPH,WindSpeedGustMPH,Humidity,HourlyPrecipIn,Conditions,Clouds,dailyrainin,SoftwareType,DateUTC
2013-01-11 00:08:00,42.2,22.4,29.92,SE,137,6.0,6.0,45,0.00,,,0.00,Wunderground v.1.15,2013-01-11 07:08:00,
2013-01-11 00:13:00,42.1,22.8,29.91,SE,134,6.0,6.0,46,0.00,,,0.00,Wunderground v.1.15,2013-01-11 07:13:00,
2013-01-11 00:18:00,42.1,22.8,29.90,SE,134,7.0,7.0,46,0.00,,,0.00,Wunderground v.1.15,2013-01-11 07:18:00,
2013-01-11 00:28:00,42.0,22.7,29.91,SSE,160,7.0,7.0,46,0.00,,,0.00,Wunderground v.1.15,2013-01-11 07:28:00,
2013-01-11 00:33:00,41.9,22.6,29.90,SE,131,6.0,7.0,46,0.00,,,0.00,Wunderground v.1.15,2013-01-11 07:33:00,
2013-01-11 00:43:00,41.9,23.1,29.90,SSE,156,6.0,9.0,47,0.00,,,0.00,Wunderground v.1.15,2013-01-11 07:43:00,
2013-01-11 00:48:00,41.8,23.0,29.90,SE,138,5.0,5.0,47,0.00,,,0.00,Wunderground v.1.15,2013-01-11 07:48:00,
2013-01-11 00:58:00,41.7,23.4,29.90,SSE,158,7.0,7.0,48,0.00,,,0.00,Wunderground v.1.15,2013-01-11 07:58:00,
2013-01-11 01:08:00,42.1,23.3,29.89,SSW,212,6.0,6.0,47,0.00,,,0.00,Wunderground v.1.15,2013-01-11 08:08:00,
2013-01-11 01:13:00,42.3,23.5,29.89,SE,132,6.0,7.0,47,0.00,,,0.00,Wunderground v.1.15,2013-01-11 08:13:00,
2013-01-11 01:23:00,42.3,23.5,29.89,SE,135,6.0,6.0,47,0.00,,,0.00,Wunderground v.1.15,2013-01-11 08:23:00,
2013-01-11 01:33:00,42.0,23.2,29.88,SE,143,6.0,6.0,47,0.00,,,0.00,Wunderground v.1.15,2013-01-11 08:33:00,
2013-01-11 01:43:00,41.9,23.1,29.88,ESE,122,8.0,9.0,47,0.00,,,0.00,Wunderground v.1.15,2013-01-11 08:43:00,
2013-01-11 01:53:00,42.1,23.3,29.87,SE,136,6.0,7.0,47,0.00,,,0.00,Wunderground v.1.15,2013-01-11 08:53:00,
2013-01-11 01:58:00,42.3,23.5,29.86,South,180,6.0,7.0,47,0.00,,,0.00,Wunderground v.1.15,2013-01-11 08:58:00,
2013-01-11 02:08:00,42.3,23.0,29.86,SE,135,7.0,7.0,46,0.00,,,0.00,Wunderground v.1.15,2013-01-11 09:08:00,
2013-01-11 02:13:00,42.2,22.9,29.86,SE,138,6.0,7.0,46,0.00,,,0.00,Wunderground v.1.15,2013-01-11 09:13:00,
2013-01-11 02:23:00,41.9,23.1,29.85,SSE,148,5.0,6.0,47,0.00,,,0.00,Wunderground v.1.15,2013-01-11 09:23:00,
2013-01-11 02:28:00,41.7,22.9,29.85,SE,138,5.0,5.0,47,0.00,,,0.00,Wunderground v.1.15,2013-01-11 09:28:00,
2013-01-11 02:38:00,41.6,22.8,29.85,SE,138,4.0,5.0,47,0.00,,,0.00,Wunderground v.1.15,2013-01-11 09:38:00,
2013-01-11 02:48:00,41.6,22.3,29.84,SSE,153,5.0,5.0,46,0.00,,,0.00,Wunderground v.1.15,2013-01-11 09:48:00,
2013-01-11 02:53:00,41.5,22.2,29.84,SE,146,4.0,5.0,46,0.00,,,0.00,Wunderground v.1.15,2013-01-11 09:53:00,
2013-01-11 02:58:00,41.3,22.6,29.84,SSE,166,3.0,4.0,47,0.00,,,0.00,Wunderground v.1.15,2013-01-11 09:58:00,
2013-01-11 03:08:00,41.1,22.4,29.83,SE,146,3.0,3.0,47,0.00,,,0.00,Wunderground v.1.15,2013-01-11 10:08:00,
2013-01-11 03:18:00,40.6,21.9,29.83,SSE,158,2.0,2.0,47,0.00,,,0.00,Wunderground v.1.15,2013-01-11 10:18:00,
2013-01-11 03:28:00,40.2,22.1,29.82,SE,124,3.0,4.0,48,0.00,,,0.00,Wunderground v.1.15,2013-01-11 10:28:00,
2013-01-11 03:33:00,40.4,21.7,29.82,SE,135,4.0,6.0,47,0.00,,,0.00,Wunderground v.1.15,2013-01-11 10:33:00,
2013-01-11 03:43:00,40.8,21.6,29.81,SE,146,5.0,5.0,46,0.00,,,0.00,Wunderground v.1.15,2013-01-11 10:43:00,
2013-01-11 03:48:00,41.0,21.3,29.81,SE,127,6.0,6.0,45,0.00,,,0.00,Wunderground v.1.15,2013-01-11 10:48:00,
2013-01-11 03:58:00,40.8,21.1,29.79,SSE,162,5.0,8.0,45,0.00,,,0.00,Wunderground v.1.15,2013-01-11 10:58:00,
2013-01-11 04:08:00,40.4,20.7,29.79,SE,131,5.0,7.0,45,0.00,,,0.00,Wunderground v.1.15,2013-01-11 11:08:00,
2013-01-11 04:18:00,40.4,20.7,29.79,SSE,155,6.0,6.0,45,0.00,,,0.00,Wunderground v.1.15,2013-01-11 11:18:00,
2013-01-11 04:28:00,40.7,20.5,29.79,SW,214,6.0,10.0,44,0.00,,,0.00,Wunderground v.1.15,2013-01-11 11:28:00,
2013-01-11 04:38:00,41.0,20.2,29.79,South,176,6.0,7.0,43,0.00,,,0.00,Wunderground v.1.15,2013-01-11 11:38:00,
2013-01-11 04:43:00,41.3,20.5,29.79,South,184,7.0,8.0,43,0.00,,,0.00,Wunderground v.1.15,2013-01-11 11:43:00,
2013-01-11 04:53:00,41.7,20.3,29.79,SSE,150,7.0,13.0,42,0.00,,,0.00,Wunderground v.1.15,2013-01-11 11:53:00,
2013-01-11 04:58:00,41.7,20.3,29.79,SSE,155,7.0,8.0,42,0.00,,,0.00,Wunderground v.1.15,2013-01-11 11:58:00,
2013-01-11 05:08:00,41.9,20.4,29.79,SSE,150,7.0,8.0,42,0.00,,,0.00,Wunderground v.1.15,2013-01-11 12:08:00,
2013-01-11 05:18:00,41.9,20.4,29.80,South,177,7.0,7.0,42,0.00,,,0.00,Wunderground v.1.15,2013-01-11 12:18:00,
2013-01-11 05:28:00,41.7,20.3,29.80,ESE,121,5.0,5.0,42,0.00,,,0.00,Wunderground v.1.15,2013-01-11 12:28:00,
2013-01-11 05:33:00,41.3,19.9,29.80,SSW,211,5.0,5.0,42,0.00,,,0.00,Wunderground v.1.15,2013-01-11 12:33:00,
2013-01-11 05:43:00,40.9,20.1,29.80,SE,132,4.0,5.0,43,0.00,,,0.00,Wunderground v.1.15,2013-01-11 12:43:00,
2013-01-11 05:48:00,41.1,19.2,29.80,SSW,203,4.0,4.0,41,0.00,,,0.00,Wunderground v.1.15,2013-01-11 12:48:00,
2013-01-11 05:53:00,41.2,19.2,29.80,SSW,205,5.0,6.0,41,0.00,,,0.00,Wunderground v.1.15,2013-01-11 12:53:00,
2013-01-11 05:58:00,41.1,19.2,29.80,SSE,153,4.0,5.0,41,0.00,,,0.00,Wunderground v.1.15,2013-01-11 12:58:00,
2013-01-11 06:08:00,40.6,19.3,29.81,SE,134,2.0,4.0,42,0.00,,,0.00,Wunderground v.1.15,2013-01-11 13:08:00,
2013-01-11 06:13:00,40.4,18.5,29.83,West,259,3.0,11.0,41,0.00,,,0.00,Wunderground v.1.15,2013-01-11 13:13:00,
2013-01-11 06:23:00,38.8,23.6,29.85,NNE,15,8.0,8.0,54,0.00,,,0.00,Wunderground v.1.15,2013-01-11 13:23:00,
2013-01-11 06:33:00,36.8,23.4,29.86,West,267,10.0,10.0,58,0.00,,,0.00,Wunderground v.1.15,2013-01-11 13:33:00,
2013-01-11 06:43:00,35.8,22.5,29.87,WSW,253,11.0,20.0,58,0.00,,,0.00,Wunderground v.1.15,2013-01-11 13:43:00,
2013-01-11 06:48:00,35.6,21.9,29.88,WSW,251,10.0,10.0,57,0.00,,,0.00,Wunderground v.1.15,2013-01-11 13:48:00,
2013-01-11 06:53:00,35.2,19.8,29.88,WNW,295,10.0,10.0,53,0.00,,,0.00,Wunderground v.1.15,2013-01-11 13:53:00,
2013-01-11 06:58:00,34.7,18.4,29.89,WSW,245,10.0,10.0,51,0.00,,,0.00,Wunderground v.1.15,2013-01-11 13:58:00,
2013-01-11 07:08:00,34.1,17.8,29.89,WSW,253,9.0,9.0,51,0.00,,,0.00,Wunderground v.1.15,2013-01-11 14:08:00,
2013-01-11 07:13:00,33.8,17.1,29.90,West,277,8.0,9.0,50,0.00,,,0.00,Wunderground v.1.15,2013-01-11 14:13:00,
2013-01-11 07:18:00,33.6,16.5,29.90,West,276,9.0,9.0,49,0.00,,,0.00,Wunderground v.1.15,2013-01-11 14:18:00,
2013-01-11 07:28:00,33.2,16.5,29.92,West,260,9.0,9.0,50,0.00,,,0.00,Wunderground v.1.15,2013-01-11 14:28:00,
2013-01-11 07:33:00,33.1,16.0,29.92,WSW,250,8.0,9.0,49,0.00,,,0.00,Wunderground v.1.15,2013-01-11 14:33:00,
2013-01-11 07:43:00,32.6,15.1,29.93,SW,222,7.0,9.0,48,0.00,,,0.00,Wunderground v.1.15,2013-01-11 14:43:00,
2013-01-11 07:53:00,32.3,13.8,29.94,SW,224,6.0,14.0,46,0.00,,,0.00,Wunderground v.1.15,2013-01-11 14:53:00,
2013-01-11 07:58:00,32.1,13.1,29.95,West,260,8.0,16.0,45,0.00,,,0.00,Wunderground v.1.15,2013-01-11 14:58:00,
2013-01-11 08:08:00,31.8,12.8,29.94,South,177,7.0,7.0,45,0.00,,,0.00,Wunderground v.1.15,2013-01-11 15:08:00,
2013-01-11 08:13:00,31.6,12.7,29.95,WNW,287,8.0,8.0,45,0.00,,,0.00,Wunderground v.1.15,2013-01-11 15:13:00,
2013-01-11 08:23:00,31.5,12.6,29.96,WNW,287,5.0,11.0,45,0.00,,,0.00,Wunderground v.1.15,2013-01-11 15:23:00,
2013-01-11 08:28:00,31.5,12.6,29.97,West,260,6.0,10.0,45,0.00,,,0.00,Wunderground v.1.15,2013-01-11 15:28:00,
2013-01-11 08:38:00,31.4,12.5,29.97,NW,315,7.0,7.0,45,0.00,,,0.00,Wunderground v.1.15,2013-01-11 15:38:00,
2013-01-11 08:48:00,31.4,13.0,29.98,West,264,6.0,6.0,46,0.00,,,0.00,Wunderground v.1.15,2013-01-11 15:48:00,
2013-01-11 08:58:00,31.2,12.3,29.98,WSW,253,7.0,7.0,45,0.00,,,0.00,Wunderground v.1.15,2013-01-11 15:58:00,
2013-01-11 09:08:00,31.3,11.4,29.98,West,260,6.0,6.0,43,0.00,,,0.00,Wunderground v.1.15,2013-01-11 16:08:00,
2013-01-11 09:13:00,31.4,11.5,29.99,WSW,249,6.0,6.0,43,0.00,,,0.00,Wunderground v.1.15,2013-01-11 16:13:00,
2013-01-11 09:18:00,31.5,10.5,29.99,West,281,5.0,5.0,41,0.00,,,0.00,Wunderground v.1.15,2013-01-11 16:18:00,
2013-01-11 09:28:00,31.7,9.5,29.99,WSW,252,6.0,6.0,39,0.00,,,0.00,Wunderground v.1.15,2013-01-11 16:28:00,
2013-01-11 09:33:00,31.7,9.0,29.99,WSW,240,7.0,7.0,38,0.00,,,0.00,Wunderground v.1.15,2013-01-11 16:33:00,
2013-01-11 09:38:00,31.6,8.3,29.99,West,270,7.0,7.0,37,0.00,,,0.00,Wunderground v.1.15,2013-01-11 16:38:00,
2013-01-11 09:43:00,31.6,7.7,29.99,SW,233,7.0,10.0,36,0.00,,,0.00,Wunderground v.1.15,2013-01-11 16:43:00,
2013-01-11 09:48:00,31.6,7.7,29.99,West,277,6.0,6.0,36,0.00,,,0.00,Wunderground v.1.15,2013-01-11 16:48:00,
2013-01-11 09:58:00,32.6,5.3,29.99,SW,232,7.0,7.0,31,0.00,,,0.00,Wunderground v.1.15,2013-01-11 16:58:00,
2013-01-11 10:08:00,33.7,3.2,29.99,West,267,7.0,14.0,27,0.00,,,0.00,Wunderground v.1.15,2013-01-11 17:08:00,
2013-01-11 10:13:00,34.2,2.0,29.99,WSW,252,8.0,14.0,25,0.00,,,0.00,Wunderground v.1.15,2013-01-11 17:13:00,
2013-01-11 10:23:00,34.2,1.1,29.99,West,270,9.0,10.0,24,0.00,,,0.00,Wunderground v.1.15,2013-01-11 17:23:00,
2013-01-11 10:33:00,34.4,-0.6,29.99,West,269,8.0,16.0,22,0.00,,,0.00,Wunderground v.1.15,2013-01-11 17:33:00,
2013-01-11 10:38:00,34.2,-2.8,29.99,SSE,159,11.0,11.0,20,0.00,,,0.00,Wunderground v.1.15,2013-01-11 17:38:00,
2013-01-11 10:43:00,34.1,-1.8,29.99,NW,313,11.0,11.0,21,0.00,,,0.00,Wunderground v.1.15,2013-01-11 17:43:00,
2013-01-11 10:53:00,34.0,-2.9,29.99,WNW,297,10.0,16.0,20,0.00,,,0.00,Wunderground v.1.15,2013-01-11 17:53:00,
2013-01-11 10:58:00,33.7,-2.2,29.99,WSW,258,12.0,12.0,21,0.00,,,0.00,Wunderground v.1.15,2013-01-11 17:58:00,
2013-01-11 11:08:00,33.7,-1.2,29.98,NW,323,10.0,10.0,22,0.00,,,0.00,Wunderground v.1.15,2013-01-11 18:08:00,
2013-01-11 11:18:00,33.8,-2.1,29.97,WNW,284,11.0,11.0,21,0.00,,,0.00,Wunderground v.1.15,2013-01-11 18:18:00,
2013-01-11 11:28:00,33.7,-0.2,29.97,WSW,246,11.0,14.0,23,0.00,,,0.00,Wunderground v.1.15,2013-01-11 18:28:00,
2013-01-11 11:33:00,34.1,0.1,29.97,West,270,10.0,14.0,23,0.00,,,0.00,Wunderground v.1.15,2013-01-11 18:33:00,
2013-01-11 11:43:00,34.0,1.8,29.96,SW,225,9.0,9.0,25,0.00,,,0.00,Wunderground v.1.15,2013-01-11 18:43:00,
2013-01-11 11:53:00,33.3,-1.5,29.96,SW,235,11.0,14.0,22,0.00,,,0.00,Wunderground v.1.15,2013-01-11 18:53:00,
2013-01-11 11:58:00,33.5,-0.4,29.96,SW,231,11.0,16.0,23,0.00,,,0.00,Wunderground v.1.15,2013-01-11 18:58:00,
2013-01-11 12:08:00,33.6,0.6,29.96,WSW,240,9.0,11.0,24,0.00,,,0.00,Wunderground v.1.15,2013-01-11 19:08:00,
2013-01-11 12:13:00,33.4,-0.5,29.96,WNW,294,10.0,11.0,23,0.00,,,0.00,Wunderground v.1.15,2013-01-11 19:13:00,
2013-01-11 12:18:00,33.3,1.2,29.95,WSW,254,10.0,13.0,25,0.00,,,0.00,Wunderground v.1.15,2013-01-11 19:18:00,
2013-01-11 12:28:00,32.9,2.5,29.95,West,259,10.0,10.0,27,0.00,,,0.00,Wunderground v.1.15,2013-01-11 19:28:00,
2013-01-11 12:33:00,32.9,1.7,29.95,SW,235,9.0,14.0,26,0.00,,,0.00,Wunderground v.1.15,2013-01-11 19:33:00,
2013-01-11 12:43:00,32.4,2.1,29.95,WSW,240,9.0,13.0,27,0.00,,,0.00,Wunderground v.1.15,2013-01-11 19:43:00,
2013-01-11 12:53:00,32.8,-0.1,29.94,West,262,11.0,14.0,24,0.00,,,0.00,Wunderground v.1.15,2013-01-11 19:53:00,
2013-01-11 12:58:00,33.1,1.0,29.94,SSW,201,10.0,10.0,25,0.00,,,0.00,Wunderground v.1.15,2013-01-11 19:58:00,
2013-01-11 13:08:00,34.1,2.7,29.94,SW,226,6.0,8.0,26,0.00,,,0.00,Wunderground v.1.15,2013-01-11 20:08:00,
2013-01-11 13:18:00,33.6,1.5,29.94,SW,233,9.0,11.0,25,0.00,,,0.00,Wunderground v.1.15,2013-01-11 20:18:00,
2013-01-11 13:23:00,34.0,2.6,29.94,West,259,8.0,11.0,26,0.00,,,0.00,Wunderground v.1.15,2013-01-11 20:23:00,
2013-01-11 13:33:00,33.9,1.7,29.94,WSW,246,8.0,12.0,25,0.00,,,0.00,Wunderground v.1.15,2013-01-11 20:33:00,
2013-01-11 13:38:00,34.1,0.1,29.94,West,272,8.0,8.0,23,0.00,,,0.00,Wunderground v.1.15,2013-01-11 20:38:00,
2013-01-11 13:48:00,34.8,0.7,29.94,West,269,7.0,7.0,23,0.00,,,0.00,Wunderground v.1.15,2013-01-11 20:48:00,
2013-01-11 13:58:00,34.6,-1.4,29.94,WSW,240,9.0,9.0,21,0.00,,,0.00,Wunderground v.1.15,2013-01-11 20:58:00,
2013-01-11 14:08:00,34.9,1.7,29.94,West,277,8.0,10.0,24,0.00,,,0.00,Wunderground v.1.15,2013-01-11 21:08:00,
2013-01-11 14:13:00,34.8,-0.3,29.94,SW,224,8.0,10.0,22,0.00,,,0.00,Wunderground v.1.15,2013-01-11 21:13:00,
2013-01-11 14:18:00,34.7,1.5,29.95,West,271,9.0,14.0,24,0.00,,,0.00,Wunderground v.1.15,2013-01-11 21:18:00,
2013-01-11 14:28:00,34.8,-0.3,29.95,West,274,8.0,21.0,22,0.00,,,0.00,Wunderground v.1.15,2013-01-11 21:28:00,
2013-01-11 14:33:00,34.2,-1.8,29.95,WSW,257,10.0,21.0,21,0.00,,,0.00,Wunderground v.1.15,2013-01-11 21:33:00,
2013-01-11 14:43:00,34.2,-0.8,29.96,SW,233,9.0,11.0,22,0.00,,,0.00,Wunderground v.1.15,2013-01-11 21:43:00,
2013-01-11 14:48:00,34.4,-1.6,29.96,WSW,254,8.0,8.0,21,0.00,,,0.00,Wunderground v.1.15,2013-01-11 21:48:00,
2013-01-11 14:53:00,34.5,-1.5,29.96,WNW,297,8.0,8.0,21,0.00,,,0.00,Wunderground v.1.15,2013-01-11 21:53:00,
2013-01-11 14:58:00,34.5,-2.5,29.96,WSW,257,9.0,11.0,20,0.00,,,0.00,Wunderground v.1.15,2013-01-11 21:58:00,
2013-01-11 15:08:00,34.5,-2.5,29.95,WSW,258,10.0,11.0,20,0.00,,,0.00,Wunderground v.1.15,2013-01-11 22:08:00,
2013-01-11 15:13:00,34.6,-2.4,29.95,SW,222,8.0,12.0,20,0.00,,,0.00,Wunderground v.1.15,2013-01-11 22:13:00,
2013-01-11 15:23:00,34.5,-2.5,29.96,WSW,250,10.0,10.0,20,0.00,,,0.00,Wunderground v.1.15,2013-01-11 22:23:00,
2013-01-11 15:28:00,34.6,-2.4,29.97,WSW,248,8.0,8.0,20,0.00,,,0.00,Wunderground v.1.15,2013-01-11 22:28:00,
2013-01-11 15:38:00,34.8,-4.5,29.97,WSW,253,8.0,8.0,18,0.00,,,0.00,Wunderground v.1.15,2013-01-11 22:38:00,
2013-01-11 15:43:00,34.7,-4.6,29.97,WSW,242,8.0,12.0,18,0.00,,,0.00,Wunderground v.1.15,2013-01-11 22:43:00,
2013-01-11 15:48:00,34.9,-1.2,29.98,West,273,6.0,9.0,21,0.00,,,0.00,Wunderground v.1.15,2013-01-11 22:48:00,
2013-01-11 15:58:00,33.7,-2.2,29.98,NW,319,6.0,8.0,21,0.00,,,0.00,Wunderground v.1.15,2013-01-11 22:58:00,
2013-01-11 16:08:00,33.2,-3.6,29.99,NW,326,6.0,6.0,20,0.00,,,0.00,Wunderground v.1.15,2013-01-11 23:08:00,
2013-01-11 16:13:00,33.0,-4.9,29.99,WNW,290,6.0,6.0,19,0.00,,,0.00,Wunderground v.1.15,2013-01-11 23:13:00,
2013-01-11 16:23:00,32.8,-5.0,29.99,WNW,301,6.0,6.0,19,0.00,,,0.00,Wunderground v.1.15,2013-01-11 23:23:00,
2013-01-11 16:28:00,32.6,-5.2,29.99,NW,315,6.0,6.0,19,0.00,,,0.00,Wunderground v.1.15,2013-01-11 23:28:00,
2013-01-11 16:38:00,32.5,-5.3,30.00,NW,322,5.0,5.0,19,0.00,,,0.00,Wunderground v.1.15,2013-01-11 23:38:00,
2013-01-11 16:43:00,32.2,-6.6,30.00,NNW,333,5.0,7.0,18,0.00,,,0.00,Wunderground v.1.15,2013-01-11 23:43:00,
2013-01-11 16:53:00,31.5,-6.1,30.01,NW,305,5.0,10.0,19,0.00,,,0.00,Wunderground v.1.15,2013-01-11 23:53:00,
2013-01-11 16:58:00,31.1,-6.4,30.01,WNW,299,6.0,7.0,19,0.00,,,0.00,Wunderground v.1.15,2013-01-11 23:58:00,
2013-01-11 17:08:00,30.6,-6.9,30.01,NW,311,5.0,5.0,19,0.00,,,0.00,Wunderground v.1.15,2013-01-12 00:08:00,
2013-01-11 17:13:00,30.4,-8.1,30.02,NNW,333,6.0,6.0,18,0.00,,,0.00,Wunderground v.1.15,2013-01-12 00:13:00,
2013-01-11 17:23:00,29.9,-8.6,30.02,NNW,333,7.0,7.0,18,0.00,,,0.00,Wunderground v.1.15,2013-01-12 00:23:00,
2013-01-11 17:28:00,29.7,-8.7,30.02,NW,311,5.0,5.0,18,0.00,,,0.00,Wunderground v.1.15,2013-01-12 00:28:00,
2013-01-11 17:38:00,29.2,-8.0,30.03,NW,311,3.0,3.0,19,0.00,,,0.00,Wunderground v.1.15,2013-01-12 00:38:00,
2013-01-11 17:48:00,28.8,-8.4,30.03,NNW,337,2.0,2.0,19,0.00,,,0.00,Wunderground v.1.15,2013-01-12 00:48:00,
2013-01-11 17:58:00,28.5,-7.6,30.04,NW,311,2.0,2.0,20,0.00,,,0.00,Wunderground v.1.15,2013-01-12 00:58:00,
2013-01-11 18:08:00,28.3,-7.7,30.05,WNW,302,3.0,3.0,20,0.00,,,0.00,Wunderground v.1.15,2013-01-12 01:08:00,
2013-01-11 18:13:00,28.1,-7.9,30.05,NW,314,3.0,3.0,20,0.00,,,0.00,Wunderground v.1.15,2013-01-12 01:13:00,
2013-01-11 18:23:00,27.8,-7.2,30.05,NW,323,3.0,5.0,21,0.00,,,0.00,Wunderground v.1.15,2013-01-12 01:23:00,
2013-01-11 18:33:00,27.6,-7.3,30.05,NW,318,5.0,8.0,21,0.00,,,0.00,Wunderground v.1.15,2013-01-12 01:33:00,
2013-01-11 18:38:00,27.5,-7.4,30.06,NW,306,5.0,5.0,21,0.00,,,0.00,Wunderground v.1.15,2013-01-12 01:38:00,
2013-01-11 18:48:00,27.3,-7.6,30.06,NNW,345,5.0,5.0,21,0.00,,,0.00,Wunderground v.1.15,2013-01-12 01:48:00,
2013-01-11 18:53:00,27.1,-7.7,30.06,NNW,333,4.0,5.0,21,0.00,,,0.00,Wunderground v.1.15,2013-01-12 01:53:00,
2013-01-11 18:58:00,27.0,-6.9,30.06,North,356,4.0,5.0,22,0.00,,,0.00,Wunderground v.1.15,2013-01-12 01:58:00,
2013-01-11 19:08:00,26.7,-7.1,30.07,NW,326,4.0,6.0,22,0.00,,,0.00,Wunderground v.1.15,2013-01-12 02:08:00,
2013-01-11 19:13:00,26.5,-6.4,30.06,NNW,329,5.0,6.0,23,0.00,,,0.00,Wunderground v.1.15,2013-01-12 02:13:00,
2013-01-11 19:23:00,26.1,-6.7,30.06,NE,50,3.0,5.0,23,0.00,,,0.00,Wunderground v.1.15,2013-01-12 02:23:00,
2013-01-11 19:28:00,25.9,-6.9,30.07,North,360,3.0,3.0,23,0.00,,,0.00,Wunderground v.1.15,2013-01-12 02:28:00,
2013-01-11 19:38:00,25.5,-7.2,30.07,NNE,30,3.0,3.0,23,0.00,,,0.00,Wunderground v.1.15,2013-01-12 02:38:00,
2013-01-11 19:48:00,25.3,-6.5,30.08,North,355,4.0,4.0,24,0.00,,,0.00,Wunderground v.1.15,2013-01-12 02:48:00,
2013-01-11 19:58:00,25.3,-6.5,30.08,NW,325,4.0,4.0,24,0.00,,,0.00,Wunderground v.1.15,2013-01-12 02:58:00,
2013-01-11 20:08:00,25.4,-6.4,30.08,NNW,344,4.0,4.0,24,0.00,,,0.00,Wunderground v.1.15,2013-01-12 03:08:00,
2013-01-11 20:13:00,25.4,-6.4,30.08,NNW,327,3.0,4.0,24,0.00,,,0.00,Wunderground v.1.15,2013-01-12 03:13:00,
2013-01-11 20:23:00,25.3,-5.7,30.08,NW,326,4.0,4.0,25,0.00,,,0.00,Wunderground v.1.15,2013-01-12 03:23:00,
2013-01-11 20:33:00,25.3,-4.9,30.08,NNE,22,4.0,4.0,26,0.00,,,0.00,Wunderground v.1.15,2013-01-12 03:33:00,
2013-01-11 20:43:00,25.3,-4.9,30.08,NE,56,4.0,5.0,26,0.00,,,0.00,Wunderground v.1.15,2013-01-12 03:43:00,
2013-01-11 20:53:00,25.3,-4.9,30.08,North,351,5.0,6.0,26,0.00,,,0.00,Wunderground v.1.15,2013-01-12 03:53:00,
2013-01-11 20:58:00,25.3,-4.9,30.08,NE,41,5.0,9.0,26,0.00,,,0.00,Wunderground v.1.15,2013-01-12 03:58:00,
2013-01-11 21:08:00,25.2,-5.0,30.08,NW,326,6.0,6.0,26,0.00,,,0.00,Wunderground v.1.15,2013-01-12 04:08:00,
2013-01-11 21:18:00,25.1,-4.3,30.08,NNE,12,5.0,8.0,27,0.00,,,0.00,Wunderground v.1.15,2013-01-12 04:18:00,
2013-01-11 21:28:00,24.9,-5.2,30.08,NNE,25,5.0,5.0,26,0.00,,,0.00,Wunderground v.1.15,2013-01-12 04:28:00,
2013-01-11 21:33:00,24.7,-5.4,30.08,NNE,32,4.0,5.0,26,0.00,,,0.00,Wunderground v.1.15,2013-01-12 04:33:00,
2013-01-11 21:43:00,24.5,-5.6,30.08,NNW,333,4.0,6.0,26,0.00,,,0.00,Wunderground v.1.15,2013-01-12 04:43:00,
2013-01-11 21:48:00,24.3,-5.7,30.08,North,4,5.0,5.0,26,0.00,,,0.00,Wunderground v.1.15,2013-01-12 04:48:00,
2013-01-11 21:58:00,24.3,-5.7,30.08,NNE,23,4.0,4.0,26,0.00,,,0.00,Wunderground v.1.15,2013-01-12 04:58:00,
2013-01-11 22:03:00,24.2,-5.8,30.08,NNE,26,5.0,5.0,26,0.00,,,0.00,Wunderground v.1.15,2013-01-12 05:03:00,
2013-01-11 22:08:00,24.2,-5.8,30.09,North,5,5.0,5.0,26,0.00,,,0.00,Wunderground v.1.15,2013-01-12 05:08:00,
2013-01-11 22:13:00,24.2,-5.8,30.09,North,349,5.0,5.0,26,0.00,,,0.00,Wunderground v.1.15,2013-01-12 05:13:00,
2013-01-11 22:18:00,24.2,-5.0,30.09,NNE,20,6.0,8.0,27,0.00,,,0.00,Wunderground v.1.15,2013-01-12 05:18:00,
2013-01-11 22:23:00,24.0,-5.2,30.09,North,1,6.0,8.0,27,0.00,,,0.00,Wunderground v.1.15,2013-01-12 05:23:00,
2013-01-11 22:33:00,23.7,-4.7,30.10,North,356,6.0,6.0,28,0.00,,,0.00,Wunderground v.1.15,2013-01-12 05:33:00,
2013-01-11 22:43:00,23.6,-5.6,30.10,NNE,14,6.0,6.0,27,0.00,,,0.00,Wunderground v.1.15,2013-01-12 05:43:00,
2013-01-11 22:53:00,23.5,-5.6,30.10,NNW,335,6.0,6.0,27,0.00,,,0.00,Wunderground v.1.15,2013-01-12 05:53:00,
2013-01-11 22:58:00,23.6,-5.6,30.09,NNW,329,6.0,6.0,27,0.00,,,0.00,Wunderground v.1.15,2013-01-12 05:58:00,
2013-01-11 23:08:00,23.7,-5.5,30.10,NNE,20,5.0,5.0,27,0.00,,,0.00,Wunderground v.1.15,2013-01-12 06:08:00,
2013-01-11 23:18:00,23.7,-5.5,30.09,NW,319,5.0,5.0,27,0.00,,,0.00,Wunderground v.1.15,2013-01-12 06:18:00,
2013-01-11 23:28:00,23.5,-5.6,30.10,NNW,339,4.0,4.0,27,0.00,,,0.00,Wunderground v.1.15,2013-01-12 06:28:00,
2013-01-11 23:33:00,23.3,-5.8,30.10,NNW,336,4.0,4.0,27,0.00,,,0.00,Wunderground v.1.15,2013-01-12 06:33:00,
2013-01-11 23:43:00,22.8,-5.5,30.09,NNW,339,3.0,3.0,28,0.00,,,0.00,Wunderground v.1.15,2013-01-12 06:43:00,
2013-01-11 23:48:00,22.6,-5.7,30.10,NW,316,3.0,3.0,28,0.00,,,0.00,Wunderground v.1.15,2013-01-12 06:48:00,
2013-01-11 23:58:00,22.2,-5.3,30.09,NNW,337,2.0,2.0,29,0.00,,,0.00,Wunderground v.1.15,2013-01-12 06:58:00,